TimeCST,TemperatureF,Dew PointF,Humidity,Sea Level PressureIn,VisibilityMPH,Wind Direction,Wind SpeedMPH,Gust SpeedMPH,PrecipitationIn,Events,Conditions,WindDirDegrees,DateUTC
12:56 AM,27.1,23.0,84,30.30,10.0,Calm,Calm,-,N/A,,Clear,0,2013-01-03 06:56:00
1:56 AM,26.1,23.0,88,30.32,10.0,Calm,Calm,-,N/A,,Clear,0,2013-01-03 07:56:00
2:56 AM,26.1,23.0,88,30.33,10.0,Calm,Calm,-,N/A,,Clear,0,2013-01-03 08:56:00
3:56 AM,25.2,24.1,96,30.32,7.0,NW,3.5,-,N/A,,Clear,320,2013-01-03 09:56:00
4:56 AM,25.2,23.0,91,30.34,8.0,Calm,Calm,-,N/A,,Clear,0,2013-01-03 10:56:00
5:56 AM,25.2,23.0,91,30.36,10.0,Calm,Calm,-,N/A,,Clear,0,2013-01-03 11:56:00
7:56 AM,25.2,23.0,91,30.39,9.0,Calm,Calm,-,N/A,,Clear,0,2013-01-03 13:56:00
8:56 AM,29.1,25.2,85,30.42,9.0,NW,6.9,-,N/A,,Clear,310,2013-01-03 14:56:00
9:56 AM,32.0,27.1,82,30.45,9.0,NNW,5.8,-,N/A,,Clear,330,2013-01-03 15:56:00
10:56 AM,34.9,26.1,70,30.45,10.0,NW,9.2,-,N/A,,Clear,310,2013-01-03 16:56:00
11:56 AM,36.9,27.1,68,30.43,10.0,North,5.8,-,N/A,,Clear,360,2013-01-03 17:56:00
12:56 PM,37.9,29.1,71,30.41,10.0,North,-9999.0,-,N/A,,Clear,0,2013-01-03 18:56:00
1:56 PM,39.9,29.1,65,30.40,10.0,NNE,5.8,-,N/A,,Clear,20,2013-01-03 19:56:00
2:56 PM,39.9,29.1,65,30.39,10.0,North,-9999.0,-,N/A,,Clear,0,2013-01-03 20:56:00
3:56 PM,39.9,29.1,65,30.40,10.0,ENE,3.5,-,N/A,,Clear,60,2013-01-03 21:56:00
4:56 PM,37.9,31.1,76,30.41,10.0,South,6.9,-,N/A,,Clear,180,2013-01-03 22:56:00
5:56 PM,36.0,31.1,82,30.42,10.0,Calm,Calm,-,N/A,,Clear,0,2013-01-03 23:56:00
6:56 PM,32.0,28.0,85,30.46,10.0,South,6.9,-,N/A,,Clear,190,2013-01-04 00:56:00
7:56 PM,31.1,29.1,92,30.45,10.0,Calm,Calm,-,N/A,,Clear,0,2013-01-04 01:56:00
8:56 PM,30.0,27.1,89,30.46,10.0,SSW,5.8,-,N/A,,Clear,200,2013-01-04 02:56:00
9:56 PM,30.0,27.1,89,30.46,10.0,Calm,Calm,-,N/A,,Clear,0,2013-01-04 03:56:00
10:56 PM,29.1,27.1,92,30.46,10.0,Variable,4.6,-,N/A,,Clear,0,2013-01-04 04:56:00
11:56 PM,29.1,27.1,92,30.45,10.0,Calm,Calm,-,N/A,,Clear,0,2013-01-04 05:56:00